Regional Weather Roundup
Issued by NWS

Home | Current Version | Previous Version | Text Only | Print | Product List | Glossary Off
Versions: 1 2 3 4 5 6 7 8 9 10 11 12 13 14 15 16 17 18 19 20 21 22 23 24 25 26 27 28 29 30 31 32 33 34 35 36 37 38 39 40 41 42 43 44 45 46 47 48 49 50

000
ASUS43 KOAX 300610
RWRNE

WEATHER ROUNDUP FOR NEBRASKA
NATIONAL WEATHER SERVICE OMAHA NE
100 AM CDT THU OCT 30 2014

NOTES: SATELLITE DATA IS BEING USED TO AUGMENT CLOUD COVER ABOVE
       12000 FEET.
       "FAIR" INDICATES FEW OR NO CLOUDS BELOW 12,000 FEET WITH NO
       SIGNIFICANT WEATHER AND/OR OBSTRUCTIONS TO VISIBILITY.

  * THESE STATIONS DO NOT REPORT WEATHER SUCH AS RAIN...SNOW OR FOG.

NEZ001>004-019>022-054>056-300700-
NEBRASKA PANHANDLE

CITY           SKY/WX    TMP DP  RH WIND       PRES   REMARKS
SCOTTSBLUFF    MOCLDY    43  29  57 NW9       30.18R
6HR MIN TEMP:  41; 6HR MAX TEMP:  60;

ALLIANCE       CLEAR     28  24  85 W8        30.16R WCI  20
6HR MIN TEMP:  28; 6HR MAX TEMP:  58;

CHADRON        MOCLDY    38  28  67 SW10      30.13S WCI  31
6HR MIN TEMP:  37; 6HR MAX TEMP:  56; 6HR PCP: TRACE;

KIMBALL        CLEAR     37  26  66 NW10      30.18R WCI  29
SIDNEY         CLEAR     35  25  66 NW9       30.17R WCI  28
6HR MIN TEMP:  35; 6HR MAX TEMP:  61;

$$

NEZ057>060-069>072-079>082-300700-
SOUTHWEST NEBRASKA

CITY           SKY/WX    TMP DP  RH WIND       PRES   REMARKS
NORTH PLATTE   CLEAR     42  26  53 NW10      30.07R
6HR MIN TEMP:  42; 6HR MAX TEMP:  57;

IMPERIAL       PTCLDY    43  23  45 W8        30.10R
6HR MIN TEMP:  43; 6HR MAX TEMP:  64;

LEXINGTON      CLEAR     40  33  76 W7        30.01S
MCCOOK         CLEAR     54  24  31 N15       30.04R
6HR MIN TEMP:  49; 6HR MAX TEMP:  63;

OGALLALA       CLEAR     47  27  46 S3        30.11R
$$

NEZ005>010-023>029-035>040-094-300700-
NORTH CENTRAL NEBRASKA

CITY           SKY/WX    TMP DP  RH WIND       PRES   REMARKS
VALENTINE      CLEAR     39  26  59 W10       30.06R WCI  32
6HR MIN TEMP:  39; 6HR MAX TEMP:  61;

AINSWORTH      CLEAR     42  26  54 W7        30.04R
BROKEN BOW     CLEAR     43  31  62 N9        30.02S
6HR MIN TEMP:  38; 6HR MAX TEMP:  52;

O`NEILL        PTCLDY    42  34  74 SW7       30.01S
ORD            MOCLDY    42  34  73 S5        30.00F
6HR MIN TEMP:  36; 6HR MAX TEMP:  54;

THEDFORD       CLEAR     43  26  52 NW6       30.07R
$$

NEZ041-046>049-061>064-073>077-083>087-300700-
SOUTH CENTRAL NEBRASKA

CITY           SKY/WX    TMP DP  RH WIND       PRES   REMARKS
GRAND ISLAND   MOCLDY    47  37  68 VRB3      29.99S
6HR MIN TEMP:  46; 6HR MAX TEMP:  55;

AURORA         MOCLDY    44  34  69 NE3       29.98S
HASTINGS       MOCLDY    47  35  63 W6        29.97S
6HR MIN TEMP:  47; 6HR MAX TEMP:  57;

HEBRON         MOCLDY    48  37  64 CALM      29.98F
HOLDREGE       PTCLDY    46  35  65 CALM      29.98F
KEARNEY *      MOCLDY    43  36  75 NW7       30.00S
YORK           MOCLDY    45  37  76 E3        29.99S
$$

NEZ011>018-030>034-042>045-300700-
NORTHEAST NEBRASKA

CITY           SKY/WX    TMP DP  RH WIND       PRES   REMARKS
NORFOLK        CLOUDY    46  36  68 E3        30.01F
6HR MIN TEMP:  42; 6HR MAX TEMP:  49;

ALBION         MOCLDY    43  35  73 CALM      30.02F
BLAIR          MOCLDY    47  32  55 SE9       30.03F
COLUMBUS *       N/A    N/A N/A N/A MISG        N/A
FREMONT        CLOUDY    49  33  54 E5        30.03F
TEKAMAH        CLOUDY    43  33  68 W5        30.06R
6HR MIN TEMP:  40; 6HR MAX TEMP:  47;

WAYNE          CLOUDY    46  34  62 S8        30.01F
$$

NEZ050>053-065>068-078-088>093-300700-
SOUTHEAST NEBRASKA

CITY           SKY/WX    TMP DP  RH WIND       PRES   REMARKS
LINCOLN        PTCLDY    41  33  73 NE3       30.01F
6HR MIN TEMP:  41; 6HR MAX TEMP:  51;

OMAHA EPPLEY   PTCLDY    45  31  58 S7        30.06F
6HR MIN TEMP:  44; 6HR MAX TEMP:  50;

BEATRICE       PTCLDY    47  37  65 SE6       29.99F
FALLS CITY     PTCLDY    44  35  70 SE6       30.03F
6HR MIN TEMP:  43; 6HR MAX TEMP:  51;

NEBRASKA CITY  CLEAR     46  30  52 SE7       30.03F
PLATTSMOUTH    CLEAR     42  31  65 E8        30.03F
$$

NEZ044-045-051>053-067-300700-
OMAHA AREA

CITY           SKY/WX    TMP DP  RH WIND       PRES   REMARKS
OMAHA EPPLEY   PTCLDY    45  31  58 S7        30.06F
6HR MIN TEMP:  44; 6HR MAX TEMP:  50;

BLAIR          MOCLDY    47  32  55 SE9       30.03F
FREMONT        CLOUDY    49  33  54 E5        30.03F
MILLARD        PTCLDY    45  33  63 CALM      30.03F
OFFUTT AFB     CLEAR     45  30  57 E6        30.04F
PLATTSMOUTH    CLEAR     42  31  65 E8        30.03F
WAHOO          MOCLDY    44  33  66 E6        30.02S
$$



USA.gov is the U.S. government's official web portal to all federal, state and local government web resources and services.